User: anonymous   Login
Location: Kitchener
(43.2612°N, 80.5078°W)
Time: 08:07:52
(UTC+01:00)
Language:

Iridium 57 - Orbit

View from above orbital plane
View from above orbital plane
View from above satellite
View from above satellite

Ground track
Ground track

The orbit data is extracted from the following two-line orbital elements,

1 25273U 98019B   16036.36505413  .00000228  00000-0  74225-4 0  9995
2 25273  86.4003 135.4413 0002060 100.1991 259.9437 14.34215735934710
Epoch (UTC): 05 February 2016 08:45:40
Eccentricity: 0.0002060
inclination: 86.4003°
perigee height: 776 km
apogee height: 779 km
right ascension of ascending node: 135.4413°
argument of perigee: 100.1991°
revolutions per day: 14.34215735
mean anomaly at epoch: 259.9437°
orbit number at epoch: 93471

The dashed part of the orbit path shows where the satellite is in the earth's shadow,  

DLR